| time (UTC) | temp F | wind direction | speed MPH | gust MPH | rain 1hr in | rain 24hr in | rain mn in | humidity % | barometer mb |
| 20260904174003 | 98 | 0.0 | 0.0 | 0.00 | 0.00 | 0.00 | 46 | 1015.7 | |
| 20260904173507 | 96 | 0.0 | 0.0 | 0.00 | 0.00 | 0.00 | 48 | 1015.7 | |
| 20260904173015 | 95 | 0.0 | 0.0 | 0.00 | 0.00 | 0.00 | 47 | 1015.8 | |
| 20260904172508 | 96 | 0.0 | 0.0 | 0.00 | 0.00 | 0.00 | 46 | 1015.9 | |
| 20260904172009 | 98 | 0.0 | 0.0 | 0.00 | 0.00 | 0.00 | 45 | 1015.9 | |
| 20260904171507 | 97 | 0.0 | 0.0 | 0.00 | 0.00 | 0.00 | 46 | 1016.0 | |
| 20260904171007 | 98 | 0.0 | 0.0 | 0.00 | 0.00 | 0.00 | 46 | 1016.0 | |
| 20260904170511 | 96 | 0.0 | 0.0 | 0.00 | 0.00 | 0.00 | 49 | 1016.1 | |
| 20260904170026 | 96 | 0.0 | 0.0 | 0.00 | 0.00 | 0.00 | 48 | 1016.1 | |
| 20260904165507 | 98 | 0.0 | 0.0 | 0.00 | 0.00 | 0.00 | 46 | 1016.2 | |
| 20260904165008 | 98 | 0.0 | 0.0 | 0.00 | 0.00 | 0.00 | 47 | 1016.2 | |
| 20260904164508 | 97 | 0.0 | 0.0 | 0.00 | 0.00 | 0.00 | 48 | 1016.2 | |
| 20260904164003 | 97 | 0.0 | 0.0 | 0.00 | 0.00 | 0.00 | 47 | 1016.2 | |
| 20260904163503 | 97 | 0.0 | 0.0 | 0.00 | 0.00 | 0.00 | 48 | 1016.3 | |
| 20260904163008 | 96 | 0.0 | 0.0 | 0.00 | 0.00 | 0.00 | 50 | 1016.4 | |
| 20260904162507 | 96 | 0.0 | 0.0 | 0.00 | 0.00 | 0.00 | 51 | 1016.4 | |
| 20260904162005 | 95 | 0.0 | 0.0 | 0.00 | 0.00 | 0.00 | 52 | 1016.3 | |
| 20260904161515 | 95 | 0.0 | 0.0 | 0.00 | 0.00 | 0.00 | 51 | 1016.4 | |
| 20260904161008 | 96 | 0.0 | 0.0 | 0.00 | 0.00 | 0.00 | 52 | 1016.4 | |
| 20260904160506 | 95 | 0.0 | 0.0 | 0.00 | 0.00 | 0.00 | 53 | 1016.4 | |
| 20260904160014 | 95 | 0.0 | 0.0 | 0.00 | 0.00 | 0.00 | 53 | 1016.4 | |
| 20260904155512 | 94 | 0.0 | 0.0 | 0.00 | 0.00 | 0.00 | 53 | 1016.4 | |
| 20260904155013 | 95 | 0.0 | 0.0 | 0.00 | 0.00 | 0.00 | 53 | 1016.4 | |
| 20260904154509 | 94 | 0.0 | 0.0 | 0.00 | 0.00 | 0.00 | 53 | 1016.4 | |
| 20260904154011 | 95 | 0.0 | 0.0 | 0.00 | 0.00 | 0.00 | 54 | 1016.5 | |
| 20260904153503 | 94 | 0.0 | 0.0 | 0.00 | 0.00 | 0.00 | 54 | 1016.4 | |
| 20260904153015 | 94 | 0.0 | 0.0 | 0.00 | 0.00 | 0.00 | 55 | 1016.3 | |
| 20260904152503 | 93 | 0.0 | 0.0 | 0.00 | 0.00 | 0.00 | 56 | 1016.4 | |
| 20260904152007 | 94 | 0.0 | 0.0 | 0.00 | 0.00 | 0.00 | 54 | 1016.3 | |
| 20260904151513 | 93 | 0.0 | 0.0 | 0.00 | 0.00 | 0.00 | 56 | 1016.2 | |
| 20260904151006 | 93 | 0.0 | 0.0 | 0.00 | 0.00 | 0.00 | 57 | 1016.4 | |
| 20260904150511 | 93 | 0.0 | 0.0 | 0.00 | 0.00 | 0.00 | 58 | 1016.3 | |
| 20260904150018 | 93 | 0.0 | 0.0 | 0.00 | 0.00 | 0.00 | 58 | 1016.4 | |
| 20260904145509 | 93 | 0.0 | 0.0 | 0.00 | 0.00 | 0.00 | 59 | 1016.4 | |
| 20260904145011 | 92 | 0.0 | 0.0 | 0.00 | 0.00 | 0.00 | 60 | 1016.4 | |
| 20260904144521 | 92 | 0.0 | 0.0 | 0.00 | 0.00 | 0.00 | 60 | 1016.4 | |
| 20260904144015 | 91 | 0.0 | 0.0 | 0.00 | 0.00 | 0.00 | 61 | 1016.4 | |
| 20260904143504 | 90 | 0.0 | 0.0 | 0.00 | 0.00 | 0.00 | 63 | 1016.4 | |
| 20260904143025 | 90 | 0.0 | 0.0 | 0.00 | 0.00 | 0.00 | 64 | 1016.4 | |
| 20260904142511 | 90 | 0.0 | 0.0 | 0.00 | 0.00 | 0.00 | 64 | 1016.3 | |
| 20260904142004 | 89 | 0.0 | 0.0 | 0.00 | 0.00 | 0.00 | 66 | 1016.4 | |
| 20260904141509 | 89 | 0.0 | 0.0 | 0.00 | 0.00 | 0.00 | 66 | 1016.3 | |
| 20260904141003 | 88 | 0.0 | 0.0 | 0.00 | 0.00 | 0.00 | 70 | 1016.4 | |
| 20260904140508 | 86 | 0.0 | 0.0 | 0.00 | 0.00 | 0.00 | 71 | 1016.4 | |
| 20260904140030 | 86 | 0.0 | 0.0 | 0.00 | 0.00 | 0.00 | 72 | 1016.4 | |
| 20260904135512 | 85 | 0.0 | 0.0 | 0.00 | 0.00 | 0.00 | 73 | 1016.4 | |
| 20260904135010 | 84 | 0.0 | 0.0 | 0.00 | 0.00 | 0.00 | 75 | 1016.4 | |
| 20260904134526 | 83 | 0.0 | 0.0 | 0.00 | 0.00 | 0.00 | 77 | 1016.4 | |
| 20260904134008 | 82 | 0.0 | 0.0 | 0.00 | 0.00 | 0.00 | 78 | 1016.4 | |
| 20260904133513 | 81 | 0.0 | 0.0 | 0.00 | 0.00 | 0.00 | 80 | 1016.3 | |
| 20260904133028 | 80 | 0.0 | 0.0 | 0.00 | 0.00 | 0.00 | 81 | 1016.3 | |
| 20260904132504 | 79 | 0.0 | 0.0 | 0.00 | 0.00 | 0.00 | 82 | 1016.3 | |
| 20260904132010 | 78 | 0.0 | 0.0 | 0.00 | 0.00 | 0.00 | 84 | 1016.1 | |
| 20260904131531 | 77 | 0.0 | 0.0 | 0.00 | 0.00 | 0.00 | 85 | 1016.1 | |
| 20260904131015 | 76 | 0.0 | 0.0 | 0.00 | 0.00 | 0.00 | 87 | 1016.1 | |
| 20260904130503 | 75 | 0.0 | 0.0 | 0.00 | 0.00 | 0.00 | 89 | 1016.0 | |
| 20260904130016 | 74 | 0.0 | 0.0 | 0.00 | 0.00 | 0.00 | 91 | 1016.0 | |
| 20260904125509 | 74 | 0.0 | 0.0 | 0.00 | 0.00 | 0.00 | 92 | 1015.9 | |
| 20260904125007 | 73 | 0.0 | 0.0 | 0.00 | 0.00 | 0.00 | 93 | 1015.9 | |
| 20260904124519 | 73 | 0.0 | 0.0 | 0.00 | 0.00 | 0.00 | 93 | 1015.8 | |
| 20260904124008 | 72 | 0.0 | 0.0 | 0.00 | 0.00 | 0.00 | 93 | 1015.8 | |
| 20260904123515 | 71 | 0.0 | 0.0 | 0.00 | 0.00 | 0.00 | 94 | 1015.8 | |
| 20260904123020 | 71 | 0.0 | 0.0 | 0.00 | 0.00 | 0.00 | 94 | 1015.8 | |
| 20260904122514 | 71 | 0.0 | 0.0 | 0.00 | 0.00 | 0.00 | 94 | 1015.8 | |
| 20260904122014 | 71 | 0.0 | 0.0 | 0.00 | 0.00 | 0.00 | 94 | 1015.8 | |
| 20260904121516 | 71 | 0.0 | 0.0 | 0.00 | 0.00 | 0.00 | 94 | 1015.8 | |
| 20260904121009 | 70 | 0.0 | 0.0 | 0.00 | 0.00 | 0.00 | 95 | 1015.8 | |
| 20260904120514 | 70 | 0.0 | 0.0 | 0.00 | 0.00 | 0.00 | 94 | 1015.8 | |
| 20260904120038 | 70 | 0.0 | 0.0 | 0.00 | 0.00 | 0.00 | 94 | 1015.8 | |
| 20260904115505 | 70 | 0.0 | 0.0 | 0.00 | 0.00 | 0.00 | 94 | 1015.7 | |
| 20260904115004 | 70 | 0.0 | 0.0 | 0.00 | 0.00 | 0.00 | 94 | 1015.7 | |
| 20260904114517 | 70 | 0.0 | 0.0 | 0.00 | 0.00 | 0.00 | 94 | 1015.7 | |
| 20260904114009 | 70 | 0.0 | 0.0 | 0.00 | 0.00 | 0.00 | 94 | 1015.7 | |
| 20260904113510 | 70 | 0.0 | 0.0 | 0.00 | 0.00 | 0.00 | 94 | 1015.7 | |
| 20260904113023 | 70 | 0.0 | 0.0 | 0.00 | 0.00 | 0.00 | 94 | 1015.6 | |
| 20260904112516 | 70 | 0.0 | 0.0 | 0.00 | 0.00 | 0.00 | 93 | 1015.6 | |
| 20260904112007 | 70 | 0.0 | 0.0 | 0.00 | 0.00 | 0.00 | 94 | 1015.5 | |
| 20260904111526 | 70 | 0.0 | 0.0 | 0.00 | 0.00 | 0.00 | 93 | 1015.6 | |
| 20260904111014 | 71 | 0.0 | 0.0 | 0.00 | 0.00 | 0.00 | 93 | 1015.5 | |
| 20260904110515 | 71 | 0.0 | 0.0 | 0.00 | 0.00 | 0.00 | 93 | 1015.5 | |
| 20260904110019 | 71 | 0.0 | 0.0 | 0.00 | 0.00 | 0.00 | 93 | 1015.5 | |
| 20260904105513 | 71 | 0.0 | 0.0 | 0.00 | 0.00 | 0.00 | 93 | 1015.4 | |
| 20260904105004 | 71 | 0.0 | 0.0 | 0.00 | 0.00 | 0.00 | 93 | 1015.4 | |
| 20260904104513 | 71 | 0.0 | 0.0 | 0.00 | 0.00 | 0.00 | 93 | 1015.4 | |
| 20260904104002 | 71 | 0.0 | 0.0 | 0.00 | 0.00 | 0.00 | 93 | 1015.3 | |
| 20260904103503 | 71 | 0.0 | 0.0 | 0.00 | 0.00 | 0.00 | 93 | 1015.3 | |
| 20260904103022 | 71 | 0.0 | 0.0 | 0.00 | 0.00 | 0.00 | 93 | 1015.3 | |
| 20260904102511 | 71 | 0.0 | 0.0 | 0.00 | 0.00 | 0.00 | 93 | 1015.2 | |
| 20260904102003 | 71 | 0.0 | 0.0 | 0.00 | 0.00 | 0.00 | 93 | 1015.2 | |
| 20260904101505 | 71 | 0.0 | 0.0 | 0.00 | 0.00 | 0.00 | 93 | 1015.2 | |
| 20260904101003 | 71 | 0.0 | 0.0 | 0.00 | 0.00 | 0.00 | 93 | 1015.1 | |
| 20260904100503 | 71 | 0.0 | 0.0 | 0.00 | 0.00 | 0.00 | 92 | 1015.1 | |
| 20260904100015 | 71 | 0.0 | 0.0 | 0.00 | 0.00 | 0.00 | 92 | 1015.1 | |
| 20260904095506 | 71 | 0.0 | 0.0 | 0.00 | 0.00 | 0.00 | 92 | 1015.0 | |
| 20260904095006 | 72 | 0.0 | 0.0 | 0.00 | 0.00 | 0.00 | 92 | 1015.0 | |
| 20260904094504 | 72 | 0.0 | 0.0 | 0.00 | 0.00 | 0.00 | 92 | 1014.9 | |
| 20260904094004 | 72 | 0.0 | 0.0 | 0.00 | 0.00 | 0.00 | 92 | 1014.8 | |
| 20260904093506 | 72 | 0.0 | 0.0 | 0.00 | 0.00 | 0.00 | 92 | 1014.8 | |
| 20260904093004 | 72 | 0.0 | 0.0 | 0.00 | 0.00 | 0.00 | 92 | 1014.9 | |
| 20260904092503 | 72 | 0.0 | 0.0 | 0.00 | 0.00 | 0.00 | 92 | 1014.8 | |
| 20260904092007 | 71 | 0.0 | 0.0 | 0.00 | 0.00 | 0.00 | 92 | 1014.7 | |
| 20260904091525 | 72 | 0.0 | 0.0 | 0.00 | 0.00 | 0.00 | 92 | 1014.6 | |
| 20260904091003 | 72 | 0.0 | 0.0 | 0.00 | 0.00 | 0.00 | 92 | 1014.6 | |
| 20260904090503 | 72 | 0.0 | 0.0 | 0.00 | 0.00 | 0.00 | 91 | 1014.5 | |
| 20260904090004 | 72 | 0.0 | 0.0 | 0.00 | 0.00 | 0.00 | 91 | 1014.5 | |
| 20260904085503 | 72 | 0.0 | 0.0 | 0.00 | 0.00 | 0.00 | 91 | 1014.5 | |
| 20260904085003 | 72 | 0.0 | 0.0 | 0.00 | 0.00 | 0.00 | 91 | 1014.6 | |
| 20260904084508 | 72 | 0.0 | 0.0 | 0.00 | 0.00 | 0.00 | 91 | 1014.6 | |
| 20260904084005 | 72 | 0.0 | 0.0 | 0.00 | 0.00 | 0.00 | 91 | 1014.6 | |
| 20260904083503 | 72 | 0.0 | 0.0 | 0.00 | 0.00 | 0.00 | 91 | 1014.6 | |
| 20260904083014 | 72 | 0.0 | 0.0 | 0.00 | 0.00 | 0.00 | 91 | 1014.5 | |
| 20260904082505 | 72 | 0.0 | 0.0 | 0.00 | 0.00 | 0.00 | 91 | 1014.6 | |
| 20260904082003 | 72 | 0.0 | 0.0 | 0.00 | 0.00 | 0.00 | 91 | 1014.6 | |
| 20260904081505 | 72 | 0.0 | 0.0 | 0.00 | 0.00 | 0.00 | 90 | 1014.6 | |
| 20260904081006 | 72 | 0.0 | 0.0 | 0.00 | 0.00 | 0.00 | 90 | 1014.6 | |
| 20260904080508 | 73 | 0.0 | 0.0 | 0.00 | 0.00 | 0.00 | 89 | 1014.5 | |
| 20260904080004 | 73 | 0.0 | 0.0 | 0.00 | 0.00 | 0.00 | 90 | 1014.5 | |
| 20260904075503 | 73 | 0.0 | 0.0 | 0.00 | 0.00 | 0.00 | 90 | 1014.4 | |
| 20260904075008 | 73 | 0.0 | 0.0 | 0.00 | 0.00 | 0.00 | 90 | 1014.4 | |
| 20260904074506 | 73 | 0.0 | 0.0 | 0.00 | 0.00 | 0.00 | 90 | 1014.4 | |
| 20260904074003 | 73 | 0.0 | 0.0 | 0.00 | 0.00 | 0.00 | 90 | 1014.3 | |
| 20260904073503 | 73 | 0.0 | 0.0 | 0.00 | 0.00 | 0.00 | 89 | 1014.4 | |
| 20260904073012 | 73 | 0.0 | 0.0 | 0.00 | 0.00 | 0.00 | 89 | 1014.4 | |
| 20260904072504 | 73 | 0.0 | 0.0 | 0.00 | 0.00 | 0.00 | 89 | 1014.4 | |
| 20260904072004 | 73 | 0.0 | 0.0 | 0.00 | 0.00 | 0.00 | 89 | 1014.5 | |
| 20260904071515 | 73 | 0.0 | 0.0 | 0.00 | 0.00 | 0.00 | 89 | 1014.5 | |
| 20260904071006 | 73 | 0.0 | 0.0 | 0.00 | 0.00 | 0.00 | 89 | 1014.6 | |
| 20260904070503 | 74 | 0.0 | 0.0 | 0.00 | 0.00 | 0.00 | 88 | 1014.6 | |
| 20260904070017 | 74 | 0.0 | 0.0 | 0.00 | 0.00 | 0.00 | 88 | 1014.6 | |
| 20260904065510 | 74 | 0.0 | 0.0 | 0.00 | 0.00 | 0.00 | 88 | 1014.6 | |
| 20260904065003 | 74 | 0.0 | 0.0 | 0.00 | 0.00 | 0.00 | 88 | 1014.6 | |
| 20260904064512 | 74 | 0.0 | 0.0 | 0.00 | 0.00 | 0.00 | 87 | 1014.6 | |
| 20260904064003 | 74 | 0.0 | 0.0 | 0.00 | 0.00 | 0.00 | 88 | 1014.6 | |
| 20260904063504 | 74 | 0.0 | 0.0 | 0.00 | 0.00 | 0.00 | 88 | 1014.6 | |
| 20260904063017 | 74 | 0.0 | 0.0 | 0.00 | 0.00 | 0.00 | 88 | 1014.6 | |
| 20260904062505 | 74 | 0.0 | 0.0 | 0.00 | 0.00 | 0.00 | 87 | 1014.7 | |
| 20260904062003 | 74 | 0.0 | 0.0 | 0.00 | 0.00 | 0.00 | 87 | 1014.7 | |
| 20260904061504 | 74 | 0.0 | 0.0 | 0.00 | 0.00 | 0.00 | 87 | 1014.7 | |
| 20260904061006 | 74 | 0.0 | 0.0 | 0.00 | 0.00 | 0.00 | 86 | 1014.8 | |
| 20260904060510 | 75 | 0.0 | 0.0 | 0.00 | 0.00 | 0.00 | 86 | 1014.7 | |
| 20260904060016 | 74 | 0.0 | 0.0 | 0.00 | 0.00 | 0.00 | 87 | 1014.7 | |
| 20260904055503 | 74 | 0.0 | 0.0 | 0.00 | 0.00 | 0.00 | 87 | 1014.7 | |
| 20260904055008 | 74 | 0.0 | 0.0 | 0.00 | 0.00 | 0.00 | 87 | 1014.7 | |
| 20260904054522 | 74 | 0.0 | 0.0 | 0.00 | 0.00 | 0.00 | 86 | 1014.7 | |
| 20260904054007 | 74 | 0.0 | 0.0 | 0.00 | 0.00 | 0.00 | 86 | 1014.7 | |
| 20260904053510 | 75 | 0.0 | 0.0 | 0.00 | 0.00 | 0.00 | 85 | 1014.7 | |
| 20260904053020 | 75 | 0.0 | 0.0 | 0.00 | 0.00 | 0.00 | 85 | 1014.7 | |
| 20260904052503 | 75 | 0.0 | 0.0 | 0.00 | 0.00 | 0.00 | 85 | 1014.7 | |
| 20260904052003 | 75 | 0.0 | 0.0 | 0.00 | 0.00 | 0.00 | 84 | 1014.7 | |
| 20260904051509 | 76 | 0.0 | 0.0 | 0.00 | 0.00 | 0.00 | 85 | 1014.7 | |
| 20260904051004 | 76 | 0.0 | 0.0 | 0.00 | 0.00 | 0.00 | 84 | 1014.8 | |
| 20260904050503 | 76 | 0.0 | 0.0 | 0.00 | 0.00 | 0.00 | 84 | 1014.7 | |
| 20260904050008 | 76 | 0.0 | 0.0 | 0.00 | 0.00 | 0.00 | 84 | 1014.6 | |
| 20260904045506 | 76 | 0.0 | 0.0 | 0.00 | 0.00 | 0.00 | 84 | 1014.6 | |
| 20260904045007 | 76 | 0.0 | 0.0 | 0.00 | 0.00 | 0.00 | 83 | 1014.7 | |
| 20260904044510 | 77 | 0.0 | 0.0 | 0.00 | 0.00 | 0.00 | 83 | 1014.6 | |
| 20260904044008 | 77 | 0.0 | 0.0 | 0.00 | 0.00 | 0.00 | 82 | 1014.7 | |
| 20260904043509 | 77 | 0.0 | 0.0 | 0.00 | 0.00 | 0.00 | 81 | 1014.7 | |
| 20260904043023 | 77 | 0.0 | 0.0 | 0.00 | 0.00 | 0.00 | 82 | 1014.7 | |
| 20260904042506 | 77 | 0.0 | 0.0 | 0.00 | 0.00 | 0.00 | 82 | 1014.7 | |
| 20260904042013 | 77 | 0.0 | 0.0 | 0.00 | 0.00 | 0.00 | 82 | 1014.7 | |
| 20260904041505 | 77 | 0.0 | 0.0 | 0.00 | 0.00 | 0.00 | 81 | 1014.7 | |
| 20260904041004 | 77 | 0.0 | 0.0 | 0.00 | 0.00 | 0.00 | 81 | 1014.6 | |
| 20260904040503 | 77 | 0.0 | 0.0 | 0.00 | 0.00 | 0.00 | 81 | 1014.6 | |
| 20260904040008 | 77 | 0.0 | 0.0 | 0.00 | 0.00 | 0.00 | 80 | 1014.7 | |
| 20260904035506 | 78 | 0.0 | 0.0 | 0.00 | 0.00 | 0.00 | 80 | 1014.7 | |
| 20260904035003 | 78 | 0.0 | 0.0 | 0.00 | 0.00 | 0.00 | 80 | 1014.7 | |
| 20260904034516 | 78 | 0.0 | 0.0 | 0.00 | 0.00 | 0.00 | 80 | 1014.7 | |
| 20260904034010 | 78 | 0.0 | 0.0 | 0.00 | 0.00 | 0.00 | 80 | 1014.7 | |
| 20260904033506 | 78 | 0.0 | 0.0 | 0.00 | 0.00 | 0.00 | 79 | 1014.7 | |
| 20260904033013 | 78 | 0.0 | 0.0 | 0.00 | 0.00 | 0.00 | 78 | 1014.6 | |
| 20260904032509 | 79 | 0.0 | 0.0 | 0.00 | 0.00 | 0.00 | 78 | 1014.9 | |
| 20260904032013 | 79 | 0.0 | 0.0 | 0.00 | 0.00 | 0.00 | 77 | 1014.9 | |
| 20260904031509 | 79 | 0.0 | 0.0 | 0.00 | 0.00 | 0.00 | 77 | 1014.9 | |
| 20260904031011 | 80 | 0.0 | 0.0 | 0.00 | 0.00 | 0.00 | 76 | 1014.9 | |
| 20260904030515 | 80 | 0.0 | 0.0 | 0.00 | 0.00 | 0.00 | 75 | 1014.9 | |
| 20260904030008 | 81 | 0.0 | 0.0 | 0.00 | 0.00 | 0.00 | 74 | 1014.8 | |
| 20260904025504 | 81 | 0.0 | 0.0 | 0.00 | 0.00 | 0.00 | 74 | 1014.8 | |
| 20260904025005 | 81 | 0.0 | 0.0 | 0.00 | 0.00 | 0.00 | 74 | 1014.7 | |
| 20260904024514 | 81 | 0.0 | 0.0 | 0.00 | 0.00 | 0.00 | 75 | 1014.7 | |
| 20260904024005 | 80 | 0.0 | 0.0 | 0.00 | 0.00 | 0.00 | 75 | 1014.7 | |
| 20260904023506 | 80 | 0.0 | 0.0 | 0.00 | 0.00 | 0.00 | 76 | 1014.7 | |
| 20260904023018 | 80 | 0.0 | 0.0 | 0.00 | 0.00 | 0.00 | 75 | 1014.7 | |
| 20260904022506 | 81 | 0.0 | 0.0 | 0.00 | 0.00 | 0.00 | 75 | 1014.6 | |
| 20260904022009 | 81 | 0.0 | 0.0 | 0.00 | 0.00 | 0.00 | 74 | 1014.6 | |
| 20260904021526 | 81 | 0.0 | 0.0 | 0.00 | 0.00 | 0.00 | 74 | 1014.5 | |
| 20260904021012 | 81 | 0.0 | 0.0 | 0.00 | 0.00 | 0.00 | 74 | 1014.5 | |
| 20260904020504 | 81 | 0.0 | 0.0 | 0.00 | 0.00 | 0.00 | 73 | 1014.3 | |
| 20260904020015 | 82 | 0.0 | 0.0 | 0.00 | 0.00 | 0.00 | 73 | 1014.2 | |
| 20260904015511 | 82 | 0.0 | 0.0 | 0.00 | 0.00 | 0.00 | 72 | 1014.1 | |
| 20260904015003 | 82 | 0.0 | 0.0 | 0.00 | 0.00 | 0.00 | 71 | 1014.1 | |
| 20260904014525 | 83 | 0.0 | 0.0 | 0.00 | 0.00 | 0.00 | 71 | 1014.1 | |
| 20260904014007 | 83 | 0.0 | 0.0 | 0.00 | 0.00 | 0.00 | 70 | 1014.0 | |
| 20260904013507 | 83 | 0.0 | 0.0 | 0.00 | 0.00 | 0.00 | 69 | 1014.0 | |
| 20260904013013 | 84 | 0.0 | 0.0 | 0.00 | 0.00 | 0.00 | 68 | 1014.0 | |
| 20260904012507 | 85 | 0.0 | 0.0 | 0.00 | 0.00 | 0.00 | 67 | 1013.9 | |
| 20260904012008 | 85 | 0.0 | 0.0 | 0.00 | 0.00 | 0.00 | 66 | 1013.9 | |
| 20260904011532 | 86 | 0.0 | 0.0 | 0.00 | 0.00 | 0.00 | 65 | 1013.8 | |
| 20260904011007 | 87 | 0.0 | 0.0 | 0.00 | 0.00 | 0.00 | 63 | 1013.8 | |
| 20260904010511 | 88 | 0.0 | 0.0 | 0.00 | 0.00 | 0.00 | 62 | 1013.8 | |
| 20260904010028 | 88 | 0.0 | 0.0 | 0.00 | 0.00 | 0.00 | 61 | 1013.7 | |
| 20260904005508 | 88 | 0.0 | 0.0 | 0.00 | 0.00 | 0.00 | 61 | 1013.7 | |
| 20260904005008 | 88 | 0.0 | 0.0 | 0.00 | 0.00 | 0.00 | 60 | 1013.6 | |
| 20260904004525 | 89 | 0.0 | 0.0 | 0.00 | 0.00 | 0.00 | 59 | 1013.6 | |
| 20260904004017 | 90 | 0.0 | 0.0 | 0.00 | 0.00 | 0.00 | 58 | 1013.6 | |
| 20260904003506 | 90 | 0.0 | 0.0 | 0.00 | 0.00 | 0.00 | 57 | 1013.5 | |
| 20260904003013 | 91 | 0.0 | 0.0 | 0.00 | 0.00 | 0.00 | 57 | 1013.6 | |
| 20260904002506 | 91 | 0.0 | 0.0 | 0.00 | 0.00 | 0.00 | 56 | 1013.5 | |
| 20260904002006 | 92 | 0.0 | 0.0 | 0.00 | 0.00 | 0.00 | 55 | 1013.4 | |
| 20260904001514 | 93 | 0.0 | 0.0 | 0.00 | 0.00 | 0.00 | 54 | 1013.4 | |
| 20260904001010 | 93 | 0.0 | 0.0 | 0.00 | 0.00 | 0.00 | 54 | 1013.4 | |
| 20260904000510 | 93 | 0.0 | 0.0 | 0.00 | 0.00 | 0.00 | 53 | 1013.4 | |
| 20260904000015 | 94 | 0.0 | 0.0 | 0.00 | 0.00 | 0.00 | 53 | 1013.4 | |
| 20260903235508 | 94 | 0.0 | 0.0 | 0.00 | 0.00 | 0.00 | 52 | 1013.3 | |
| 20260903235012 | 94 | 0.0 | 0.0 | 0.00 | 0.00 | 0.00 | 52 | 1013.3 | |
| 20260903234512 | 94 | 0.0 | 0.0 | 0.00 | 0.00 | 0.00 | 52 | 1013.3 | |
| 20260903234009 | 95 | 0.0 | 0.0 | 0.00 | 0.00 | 0.00 | 51 | 1013.2 | |
| 20260903233514 | 95 | 0.0 | 0.0 | 0.00 | 0.00 | 0.00 | 50 | 1013.2 | |
| 20260903233030 | 95 | 0.0 | 0.0 | 0.00 | 0.00 | 0.00 | 50 | 1013.1 | |
| 20260903232507 | 96 | 0.0 | 0.0 | 0.00 | 0.00 | 0.00 | 50 | 1013.1 | |
| 20260903232006 | 96 | 0.0 | 0.0 | 0.00 | 0.00 | 0.00 | 50 | 1013.2 | |
| 20260903231511 | 96 | 0.0 | 0.0 | 0.00 | 0.00 | 0.00 | 50 | 1013.1 | |
| 20260903231003 | 96 | 0.0 | 0.0 | 0.00 | 0.00 | 0.00 | 49 | 1013.1 | |
| 20260903230507 | 97 | 0.0 | 0.0 | 0.00 | 0.00 | 0.00 | 48 | 1013.1 | |
| 20260903230024 | 96 | 0.0 | 0.0 | 0.00 | 0.00 | 0.00 | 48 | 1013.0 | |
| 20260903225510 | 97 | 0.0 | 0.0 | 0.00 | 0.00 | 0.00 | 47 | 1013.0 | |
| 20260903225007 | 97 | 0.0 | 0.0 | 0.00 | 0.00 | 0.00 | 47 | 1013.0 | |
| 20260903224532 | 97 | 0.0 | 0.0 | 0.00 | 0.00 | 0.00 | 47 | 1012.9 | |
| 20260903224012 | 97 | 0.0 | 0.0 | 0.00 | 0.00 | 0.00 | 47 | 1012.9 | |
| 20260903223507 | 97 | 0.0 | 0.0 | 0.00 | 0.00 | 0.00 | 47 | 1012.9 | |
| 20260903223019 | 97 | 0.0 | 0.0 | 0.00 | 0.00 | 0.00 | 47 | 1013.0 | |
| 20260903222514 | 97 | 0.0 | 0.0 | 0.00 | 0.00 | 0.00 | 47 | 1013.0 | |
| 20260903222015 | 97 | 0.0 | 0.0 | 0.00 | 0.00 | 0.00 | 47 | 1013.0 | |
| 20260903221515 | 98 | 0.0 | 0.0 | 0.00 | 0.00 | 0.00 | 47 | 1012.9 | |
| 20260903221012 | 98 | 0.0 | 0.0 | 0.00 | 0.00 | 0.00 | 46 | 1012.9 | |
| 20260903220508 | 98 | 0.0 | 0.0 | 0.00 | 0.00 | 0.00 | 46 | 1012.9 | |
| 20260903220028 | 98 | 0.0 | 0.0 | 0.00 | 0.00 | 0.00 | 46 | 1012.8 | |
| 20260903215511 | 99 | 0.0 | 0.0 | 0.00 | 0.00 | 0.00 | 45 | 1012.8 | |
| 20260903215010 | 98 | 0.0 | 0.0 | 0.00 | 0.00 | 0.00 | 45 | 1012.9 | |
| 20260903214525 | 98 | 0.0 | 0.0 | 0.00 | 0.00 | 0.00 | 46 | 1012.9 | |
| 20260903214007 | 97 | 0.0 | 0.0 | 0.00 | 0.00 | 0.00 | 47 | 1013.1 | |
| 20260903213514 | 98 | 0.0 | 0.0 | 0.00 | 0.00 | 0.00 | 47 | 1013.1 | |
| 20260903213027 | 98 | 0.0 | 0.0 | 0.00 | 0.00 | 0.00 | 45 | 1013.1 | |
| 20260903212515 | 99 | 0.0 | 0.0 | 0.00 | 0.00 | 0.00 | 46 | 1013.1 | |
| 20260903212007 | 98 | 0.0 | 0.0 | 0.00 | 0.00 | 0.00 | 46 | 1013.1 | |
| 20260903211526 | 98 | 0.0 | 0.0 | 0.00 | 0.00 | 0.00 | 45 | 1013.2 | |
| 20260903211015 | 99 | 0.0 | 0.0 | 0.00 | 0.00 | 0.00 | 45 | 1013.2 | |
| 20260903210507 | 99 | 0.0 | 0.0 | 0.00 | 0.00 | 0.00 | 45 | 1013.4 | |
| 20260903210027 | 99 | 0.0 | 0.0 | 0.00 | 0.00 | 0.00 | 46 | 1013.5 | |
| 20260903205516 | 99 | 0.0 | 0.0 | 0.00 | 0.00 | 0.00 | 46 | 1013.4 | |
| 20260903205007 | 100 | 0.0 | 0.0 | 0.00 | 0.00 | 0.00 | 45 | 1013.5 | |
| 20260903204518 | 99 | 0.0 | 0.0 | 0.00 | 0.00 | 0.00 | 46 | 1013.6 | |
| 20260903204009 | 99 | 0.0 | 0.0 | 0.00 | 0.00 | 0.00 | 46 | 1013.6 | |
| 20260903203513 | 99 | 0.0 | 0.0 | 0.00 | 0.00 | 0.00 | 46 | 1013.6 | |
| 20260903203018 | 97 | 0.0 | 0.0 | 0.00 | 0.00 | 0.00 | 48 | 1013.7 | |
| 20260903202512 | 96 | 0.0 | 0.0 | 0.00 | 0.00 | 0.00 | 48 | 1013.8 | |
| 20260903202016 | 97 | 0.0 | 0.0 | 0.00 | 0.00 | 0.00 | 48 | 1013.8 | |
| 20260903201527 | 96 | 0.0 | 0.0 | 0.00 | 0.00 | 0.00 | 48 | 1013.9 | |
| 20260903201010 | 98 | 0.0 | 0.0 | 0.00 | 0.00 | 0.00 | 46 | 1013.9 | |
| 20260903200513 | 99 | 0.0 | 0.0 | 0.00 | 0.00 | 0.00 | 45 | 1013.9 | |
| 20260903200030 | 99 | 0.0 | 0.0 | 0.00 | 0.00 | 0.00 | 45 | 1014.0 | |
| 20260903195507 | 99 | 0.0 | 0.0 | 0.00 | 0.00 | 0.00 | 46 | 1014.0 | |
| 20260903195011 | 98 | 0.0 | 0.0 | 0.00 | 0.00 | 0.00 | 47 | 1014.0 | |
| 20260903194543 | 97 | 0.0 | 0.0 | 0.00 | 0.00 | 0.00 | 47 | 1014.1 | |
| 20260903194023 | 99 | 0.0 | 0.0 | 0.00 | 0.00 | 0.00 | 45 | 1014.2 | |
| 20260903193512 | 99 | 0.0 | 0.0 | 0.00 | 0.00 | 0.00 | 45 | 1014.1 | |
| 20260903193023 | 99 | 0.0 | 0.0 | 0.00 | 0.00 | 0.00 | 44 | 1014.2 | |
| 20260903192512 | 100 | 0.0 | 0.0 | 0.00 | 0.00 | 0.00 | 44 | 1014.2 | |
| 20260903192012 | 98 | 0.0 | 0.0 | 0.00 | 0.00 | 0.00 | 46 | 1014.2 | |
| 20260903191524 | 97 | 0.0 | 0.0 | 0.00 | 0.00 | 0.00 | 47 | 1014.3 | |
| 20260903191014 | 98 | 0.0 | 0.0 | 0.00 | 0.00 | 0.00 | 46 | 1014.4 | |
| 20260903190512 | 99 | 0.0 | 0.0 | 0.00 | 0.00 | 0.00 | 45 | 1014.4 | |
| 20260903190019 | 99 | 0.0 | 0.0 | 0.00 | 0.00 | 0.00 | 45 | 1014.6 | |
| 20260903185515 | 97 | 0.0 | 0.0 | 0.00 | 0.00 | 0.00 | 48 | 1014.6 | |
| 20260903185013 | 96 | 0.0 | 0.0 | 0.00 | 0.00 | 0.00 | 47 | 1014.7 | |
| 20260903184531 | 97 | 0.0 | 0.0 | 0.00 | 0.00 | 0.00 | 46 | 1014.6 | |
| 20260903184013 | 97 | 0.0 | 0.0 | 0.00 | 0.00 | 0.00 | 46 | 1014.9 | |
| 20260903183515 | 97 | 0.0 | 0.0 | 0.00 | 0.00 | 0.00 | 46 | 1015.0 | |
| 20260903183030 | 96 | 0.0 | 0.0 | 0.00 | 0.00 | 0.00 | 47 | 1015.1 | |
| 20260903182508 | 99 | 0.0 | 0.0 | 0.00 | 0.00 | 0.00 | 44 | 1015.1 | |
| 20260903182008 | 98 | 0.0 | 0.0 | 0.00 | 0.00 | 0.00 | 45 | 1015.1 | |
| 20260903181524 | 98 | 0.0 | 0.0 | 0.00 | 0.00 | 0.00 | 46 | 1015.2 | |
| 20260903181011 | 98 | 0.0 | 0.0 | 0.00 | 0.00 | 0.00 | 47 | 1015.2 | |
| 20260903180512 | 97 | 0.0 | 0.0 | 0.00 | 0.00 | 0.00 | 47 | 1015.2 | |
| 20260903180027 | 97 | 0.0 | 0.0 | 0.00 | 0.00 | 0.00 | 48 | 1015.4 | |
| 20260903175515 | 97 | 0.0 | 0.0 | 0.00 | 0.00 | 0.00 | 48 | 1015.5 | |
| 20260903175008 | 98 | 0.0 | 0.0 | 0.00 | 0.00 | 0.00 | 48 | 1015.5 | |
| 20260903174526 | 98 | 0.0 | 0.0 | 0.00 | 0.00 | 0.00 | 48 | 1015.6 |